GW3894 Weather Reports


Display with metric or nautical units.
time (UTC)temp
F
wind
direction
speed
MPH
gust
MPH
rain 1hr
in
rain 24hr
in
rain mn
in
humidity
%
barometer
mb
20260504204058 77 98 4.0 11.0 0.00 0.00 0.00 60 1002.3
20260504203551 77 96 3.0 10.0 0.00 0.00 0.00 59 1002.4
20260504203046 77 98 3.0 10.0 0.00 0.00 0.00 59 1002.4
20260504202540 77 78 3.0 9.0 0.00 0.00 0.00 61 1002.6
20260504202034 77 160 3.0 10.0 0.00 0.00 0.00 59 1002.5
20260504201528 76 120 4.0 10.0 0.00 0.00 0.00 59 1002.5
20260504201022 76 106 4.0 11.0 0.00 0.00 0.00 60 1002.6
20260504200737 75 113 3.0 11.0 0.00 0.00 0.00 61 1002.7
20260504200009 75 150 4.0 11.0 0.00 0.00 0.00 62 1003.0
20260504195504 74 113 4.0 11.0 0.00 0.00 0.00 63 1002.8
20260504194958 74 144 3.0 10.0 0.00 0.00 0.00 64 1002.9
20260504194452 73 88 3.0 10.0 0.00 0.00 0.00 65 1003.0
20260504193946 73 144 4.0 10.0 0.00 0.00 0.00 63 1003.0
20260504193440 73 116 4.0 10.0 0.00 0.00 0.00 65 1003.1
20260504192934 72 113 4.0 12.0 0.00 0.00 0.00 67 1003.2
20260504192428 71 105 4.0 13.0 0.00 0.00 0.00 68 1003.3
20260504191921 71 82 3.0 13.0 0.00 0.00 0.00 68 1003.3
20260504191415 69 127 3.0 8.0 0.00 0.00 0.00 73 1003.5
20260504190910 68 122 3.0 9.0 0.00 0.00 0.00 75 1003.2
20260504190404 66 0 3.0 9.0 0.00 0.00 0.00 75 1003.0
20260504190346 66 65 3.0 9.0 0.00 0.00 0.00 75 1003.1
20260504185352 65 80 3.0 10.0 0.00 0.00 0.00 75 1002.8
20260504184846 65 72 4.0 11.0 0.00 0.00 0.00 75 1003.0
20260504184340 66 58 3.0 11.0 0.00 0.00 0.00 74 1003.5
20260504183834 66 115 4.0 9.0 0.00 0.00 0.00 72 1004.2
20260504183328 67 146 4.0 9.0 0.00 0.00 0.00 71 1004.2
20260504183040 67 70 3.0 9.0 0.00 0.00 0.00 70 1004.3
20260504182317 67 102 3.0 7.0 0.00 0.00 0.00 70 1004.5
20260504181809 67 88 3.0 9.0 0.00 0.00 0.00 71 1004.5
20260504181307 67 88 3.0 9.0 0.00 0.00 0.00 72 1004.3
20260504180807 66 153 3.0 7.0 0.00 0.00 0.00 73 1004.1
20260504180306 66 146 2.0 7.0 0.00 0.00 0.00 72 1004.3
20260504175806 66 138 2.0 6.0 0.00 0.00 0.00 73 1004.3
20260504175306 66 116 2.0 6.0 0.00 0.00 0.00 73 1004.3
20260504175026 66 57 2.0 7.0 0.00 0.00 0.00 73 1004.2
20260504174306 66 140 2.0 7.0 0.00 0.00 0.00 75 1004.3
20260504173806 66 96 2.0 6.0 0.00 0.00 0.00 75 1004.5
20260504173523 66 88 3.0 8.0 0.00 0.00 0.00 73 1004.7
20260504172805 66 88 3.0 9.0 0.00 0.00 0.00 72 1004.7
20260504172306 66 69 2.0 9.0 0.00 0.00 0.00 71 1004.8
20260504171805 65 80 2.0 8.0 0.00 0.00 0.00 70 1004.9
20260504171305 65 112 3.0 8.0 0.00 0.00 0.00 71 1004.9
20260504170806 65 115 2.0 7.0 0.00 0.00 0.00 72 1004.8
20260504170301 64 130 2.0 7.0 0.00 0.00 0.00 72 1004.9
20260504160258 65 101 3.0 11.0 0.00 0.00 0.00 66 1005.2
20260504150750 66 152 2.0 8.0 0.00 0.00 0.00 62 1006.2
20260504150251 66 103 2.0 7.0 0.00 0.00 0.00 61 1006.3
20260504141014 68 154 3.0 13.0 0.00 0.00 0.00 59 1006.4
20260504140238 68 141 4.0 13.0 0.00 0.00 0.00 59 1006.3
20260504130631 64 199 3.0 8.0 0.00 0.00 0.00 68 1007.0
20260504130125 64 92 3.0 9.0 0.00 0.00 0.00 68 1007.1
20260504120205 61 144 2.0 4.0 0.00 0.00 0.00 71 1007.4
20260504110407 59 265 0.0 2.0 0.00 0.00 0.00 73 1007.2
20260504100517 60 90 0.0 2.0 0.00 0.00 0.00 73 1007.5
20260504081720 60 101 0.0 1.0 0.00 0.00 0.00 75 1007.5
20260504081220 60 101 0.0 2.0 0.00 0.00 0.00 75 1007.5
20260504080721 60 101 0.0 2.0 0.00 0.00 0.00 74 1007.5
20260504080218 60 101 0.0 1.0 0.00 0.00 0.00 74 1007.4
20260504070212 62 101 0.0 0.0 0.00 0.00 0.00 70 1007.6
20260504060110 66 339 1.0 4.0 0.00 0.00 0.00 59 1008.1
20260504050513 66 203 1.0 4.0 0.00 0.00 0.00 58 1007.5
20260504050011 66 203 1.0 4.0 0.00 0.00 0.00 58 1007.4
20260504045505 66 200 1.0 3.0 0.00 0.00 0.00 57 1007.3
20260504044959 66 63 1.0 5.0 0.00 0.00 0.00 57 1007.3
20260504044453 67 142 1.0 5.0 0.00 0.00 0.00 57 1007.3
20260504044207 67 198 1.0 3.0 0.00 0.00 0.00 57 1007.4
20260504043441 67 217 1.0 3.0 0.00 0.00 0.00 56 1007.5
20260504042935 67 132 0.0 2.0 0.00 0.00 0.00 55 1007.5
20260504042429 68 132 0.0 2.0 0.00 0.00 0.00 55 1007.6
20260504041923 68 171 1.0 7.0 0.00 0.00 0.00 54 1007.7
20260504041416 68 142 1.0 7.0 0.00 0.00 0.00 54 1007.9
20260504041129 69 119 1.0 3.0 0.00 0.00 0.00 53 1008.0
20260504040405 69 119 1.0 4.0 0.00 0.00 0.00 53 1008.1
20260504035859 69 211 2.0 6.0 0.00 0.00 0.00 53 1008.2
20260504035353 69 224 3.0 6.0 0.00 0.00 0.00 52 1008.2
20260504034847 70 190 3.0 9.0 0.00 0.00 0.00 52 1007.9
20260504034340 70 109 3.0 10.0 0.00 0.00 0.00 52 1007.3
20260504033835 70 76 2.0 10.0 0.00 0.00 0.00 53 1007.8
20260504033329 70 76 2.0 7.0 0.00 0.00 0.00 53 1008.2
20260504032824 69 147 3.0 7.0 0.00 0.00 0.00 53 1008.2
20260504032317 69 129 2.0 7.0 0.00 0.00 0.00 53 1008.4
20260504031811 69 158 1.0 5.0 0.00 0.00 0.00 54 1008.4
20260504031305 69 144 1.0 5.0 0.00 0.00 0.00 53 1008.4
20260504030758 69 146 1.0 3.0 0.00 0.00 0.00 54 1008.5
20260504030253 69 140 1.0 4.0 0.00 0.00 0.00 53 1008.5
20260504025747 70 73 1.0 4.0 0.00 0.00 0.00 53 1008.4
20260504025241 70 167 0.0 3.0 0.00 0.00 0.00 52 1008.3
20260504024735 70 117 0.0 2.0 0.00 0.00 0.00 52 1008.3
20260504024229 70 117 0.0 3.0 0.00 0.00 0.00 52 1008.3
20260504023723 71 117 0.0 3.0 0.00 0.00 0.00 51 1008.3
20260504023216 71 123 0.0 3.0 0.00 0.00 0.00 51 1008.3
20260504022934 71 117 0.0 5.0 0.00 0.00 0.00 50 1008.4
20260504022205 71 183 1.0 5.0 0.00 0.00 0.00 49 1008.4
20260504021849 71 150 1.0 6.0 0.00 0.00 0.00 49 1008.4
20260504021738 71 181 1.0 6.0 0.00 0.00 0.00 49 1008.3
20260504020647 72 126 1.0 5.0 0.00 0.00 0.00 49 1008.3
20260504020141 72 178 1.0 5.0 0.00 0.00 0.00 48 1008.3
20260504015635 72 219 1.0 7.0 0.00 0.00 0.00 48 1008.3
20260504015348 72 179 1.0 7.0 0.00 0.00 0.00 48 1008.3
20260504014623 72 202 1.0 4.0 0.00 0.00 0.00 48 1008.3
20260504014117 72 80 1.0 4.0 0.00 0.00 0.00 48 1008.2
20260504013611 72 134 1.0 6.0 0.00 0.00 0.00 47 1008.2
20260504013105 72 228 2.0 6.0 0.00 0.00 0.00 47 1008.2
20260504012821 72 164 1.0 5.0 0.00 0.00 0.00 47 1007.8
20260504012053 72 140 1.0 6.0 0.00 0.00 0.00 47 1007.7
20260504011547 73 95 1.0 6.0 0.00 0.00 0.00 46 1007.7
20260504011305 73 111 1.0 4.0 0.00 0.00 0.00 46 1007.6
20260504010535 73 116 1.0 4.0 0.00 0.00 0.00 45 1007.6
20260504010248 73 125 1.0 4.0 0.00 0.00 0.00 45 1007.6
20260504005523 74 96 1.0 3.0 0.00 0.00 0.00 45 1007.6
20260504005022 74 126 1.0 2.0 0.00 0.00 0.00 45 1007.7
20260504004520 74 125 1.0 2.0 0.00 0.00 0.00 44 1007.6
20260504004018 74 132 1.0 3.0 0.00 0.00 0.00 44 1007.6
20260504003516 75 142 1.0 4.0 0.00 0.00 0.00 43 1007.6
20260504003016 75 51 1.0 4.0 0.00 0.00 0.00 43 1007.6
20260504002516 75 123 1.0 4.0 0.00 0.00 0.00 42 1007.7
20260504002015 75 123 1.0 4.0 0.00 0.00 0.00 43 1007.7
20260504001515 75 135 1.0 4.0 0.00 0.00 0.00 42 1007.7
20260504001235 75 133 1.0 4.0 0.00 0.00 0.00 41 1007.7
20260504000514 76 232 1.0 3.0 0.00 0.00 0.00 42 1007.7
20260504000013 76 126 1.0 7.0 0.00 0.00 0.00 41 1007.7
20260503235515 76 190 2.0 7.0 0.00 0.00 0.00 40 1007.8
20260503235013 76 144 1.0 4.0 0.00 0.00 0.00 40 1007.7
20260503234513 76 163 1.0 6.0 0.00 0.00 0.00 40 1007.8
20260503234014 76 134 1.0 7.0 0.00 0.00 0.00 39 1007.8
20260503233515 76 98 1.0 5.0 0.00 0.00 0.00 39 1007.8
20260503233011 76 139 2.0 5.0 0.00 0.00 0.00 38 1007.9
20260503232509 77 228 2.0 8.0 0.00 0.00 0.00 38 1007.9
20260503232011 77 26 2.0 8.0 0.00 0.00 0.00 38 1008.0
20260503231510 77 209 2.0 7.0 0.00 0.00 0.00 37 1008.0
20260503231009 78 207 2.0 7.0 0.00 0.00 0.00 37 1008.0
20260503230952 78 78 2.0 8.0 0.00 0.00 0.00 36 1008.1
20260503230009 78 104 3.0 8.0 0.00 0.00 0.00 36 1008.1
20260503225510 78 171 4.0 12.0 0.00 0.00 0.00 35 1008.1
20260503225011 78 147 4.0 14.0 0.00 0.00 0.00 34 1008.2
20260503224511 78 114 4.0 14.0 0.00 0.00 0.00 34 1008.2
20260503224010 78 115 4.0 12.0 0.00 0.00 0.00 34 1008.3
20260503223510 78 107 4.0 13.0 0.00 0.00 0.00 33 1008.3
20260503223010 79 118 4.0 13.0 0.00 0.00 0.00 34 1008.4
20260503222510 79 142 3.0 11.0 0.00 0.00 0.00 34 1008.3
20260503222010 78 121 3.0 11.0 0.00 0.00 0.00 34 1008.3
20260503221736 78 159 3.0 10.0 0.00 0.00 0.00 33 1008.4
20260503221009 78 140 4.0 14.0 0.00 0.00 0.00 34 1008.5
20260503220510 78 102 5.0 14.0 0.00 0.00 0.00 33 1008.6
20260503220003 78 186 5.0 19.0 0.00 0.00 0.00 34 1008.7
20260503215505 78 194 4.0 19.0 0.00 0.00 0.00 34 1008.8
20260503215224 77 215 4.0 12.0 0.00 0.00 0.00 34 1008.8
20260503214505 77 161 5.0 15.0 0.00 0.00 0.00 34 1008.9
20260503214002 77 198 5.0 15.0 0.00 0.00 0.00 33 1008.9
20260503213503 77 179 4.0 14.0 0.00 0.00 0.00 33 1008.9
20260503212958 77 355 4.0 16.0 0.00 0.00 0.00 35 1008.9
20260503212717 77 142 5.0 16.0 0.00 0.00 0.00 34 1008.9
20260503211957 77 165 5.0 14.0 0.00 0.00 0.00 34 1009.0
20260503211458 77 49 4.0 14.0 0.00 0.00 0.00 33 1009.1
20260503211223 77 182 4.0 13.0 0.00 0.00 0.00 35 1009.1
20260503210457 77 233 4.0 13.0 0.00 0.00 0.00 33 1009.1
20260503205957 77 125 3.0 9.0 0.00 0.00 0.00 36 1009.2
20260503205939 77 97 4.0 11.0 0.00 0.00 0.00 34 1009.2
20260503204959 76 79 5.0 15.0 0.00 0.00 0.00 35 1009.3
20260503204949 76 277 5.0 15.0 0.00 0.00 0.00 34 1009.3